DW6399 Weather Reports


time (UTC)temp
C
wind
direction
speed
KPH
gust
KPH
rain 1hr
cm
rain 24hr
cm
rain mn
cm
humidity
%
barometer
mb
20220627200904 23 76 3.2 11.3 0.00 0.00 0.00 70 1020.7
20220627200004 23 86 3.2 11.3 0.00 0.00 0.00 70 1020.7
20220627195404 23 91 3.2 9.7 0.00 0.00 0.00 70 1020.7
20220627194504 23 88 3.2 12.9 0.00 0.00 0.00 70 1020.7
20220627193604 23 76 1.6 12.9 0.00 0.00 0.00 69 1020.6
20220627192704 23 91 3.2 9.7 0.00 0.00 0.00 68 1020.4
20220627191805 24 80 1.6 8.0 0.00 0.00 0.00 68 1020.3
20220627190904 24 70 1.6 9.7 0.00 0.00 0.00 68 1020.3
20220627190004 25 77 1.6 6.4 0.00 0.00 0.00 65 1020.3
20220627185404 25 89 3.2 9.7 0.00 0.00 0.00 64 1020.2
20220627184504 26 65 3.2 6.4 0.00 0.00 0.00 64 1020.1
20220627183604 26 73 3.2 6.4 0.00 0.00 0.00 63 1020.2
20220627182704 27 92 3.2 6.4 0.00 0.00 0.00 60 1020.1
20220627181804 27 113 4.8 11.3 0.00 0.00 0.00 58 1020.1
20220627180904 27 120 4.8 11.3 0.00 0.00 0.00 57 1020.1
20220627180004 28 114 3.2 11.3 0.00 0.00 0.00 55 1020.1
20220627175404 28 104 3.2 8.0 0.00 0.00 0.00 55 1020.0
20220627174504 28 105 3.2 11.3 0.00 0.00 0.00 53 1020.0
20220627173604 29 104 3.2 11.3 0.00 0.00 0.00 52 1020.0
20220627172705 29 122 3.2 9.7 0.00 0.00 0.00 51 1019.9
20220627171804 29 110 1.6 9.7 0.00 0.00 0.00 52 1019.9
20220627170904 29 124 1.6 3.2 0.00 0.00 0.00 52 1020.0
20220627170005 29 122 3.2 6.4 0.00 0.00 0.00 54 1020.0
20220627165404 29 120 3.2 6.4 0.00 0.00 0.00 50 1019.9
20220627164504 29 125 3.2 6.4 0.00 0.00 0.00 48 1019.8
20220627163604 29 134 4.8 9.7 0.00 0.00 0.00 49 1019.8
20220627162704 30 130 4.8 9.7 0.00 0.00 0.00 49 1019.9
20220627161806 30 142 4.8 11.3 0.00 0.00 0.00 48 1019.9
20220627160904 30 101 3.2 11.3 0.00 0.00 0.00 49 1019.9
20220627160004 30 115 4.8 8.0 0.00 0.00 0.00 50 1020.0
20220627155404 30 107 3.2 9.7 0.00 0.00 0.00 47 1020.0
20220627154504 30 138 1.6 8.0 0.00 0.00 0.00 50 1020.0
20220627153604 29 111 4.8 9.7 0.00 0.00 0.00 49 1020.1
20220627152704 30 140 6.4 11.3 0.00 0.00 0.00 50 1020.2
20220627151804 30 136 6.4 19.3 0.00 0.00 0.00 49 1020.2
20220627150904 30 111 4.8 8.0 0.00 0.00 0.00 50 1020.2
20220627150004 30 136 1.6 11.3 0.00 0.00 0.00 49 1020.2
20220627145404 30 133 1.6 11.3 0.00 0.00 0.00 48 1020.2
20220627144504 30 160 6.4 9.7 0.00 0.00 0.00 48 1020.2
20220627143604 30 147 4.8 12.9 0.00 0.00 0.00 48 1020.2
20220627142704 30 132 3.2 8.0 0.00 0.00 0.00 48 1020.3
20220627141804 30 146 4.8 9.7 0.00 0.00 0.00 47 1020.4
20220627140906 30 141 3.2 9.7 0.00 0.00 0.00 47 1020.3
20220627140004 30 78 3.2 9.7 0.00 0.00 0.00 50 1020.4
20220627135404 29 122 4.8 9.7 0.00 0.00 0.00 50 1020.4
20220627134504 28 134 4.8 14.5 0.00 0.00 0.00 49 1020.5
20220627133604 29 67 3.2 9.7 0.00 0.00 0.00 49 1020.5
20220627132704 29 137 6.4 12.9 0.00 0.00 0.00 49 1020.6
20220627131806 30 153 6.4 14.5 0.00 0.00 0.00 48 1020.7
20220627130904 30 133 4.8 11.3 0.00 0.00 0.00 51 1020.7
20220627130005 29 157 4.8 11.3 0.00 0.00 0.00 49 1020.8
20220627125404 29 171 6.4 11.3 0.00 0.00 0.00 49 1020.8
20220627124506 29 144 6.4 14.5 0.00 0.00 0.00 50 1020.8
20220627123604 29 153 6.4 14.5 0.00 0.00 0.00 49 1020.8
20220627122704 30 165 8.0 19.3 0.00 0.00 0.00 49 1020.9
20220627121804 29 155 6.4 19.3 0.00 0.00 0.00 48 1020.9
20220627120904 30 142 3.2 11.3 0.00 0.00 0.00 49 1020.9
20220627120004 30 195 3.2 8.0 0.00 0.00 0.00 48 1021.0
20220627115404 30 183 4.8 9.7 0.00 0.00 0.00 48 1021.0
20220627114504 29 168 6.4 12.9 0.00 0.00 0.00 50 1021.1
20220627113604 29 165 4.8 17.7 0.00 0.00 0.00 49 1021.1
20220627112704 29 183 8.0 12.9 0.00 0.00 0.00 50 1021.1
20220627111804 29 164 6.4 19.3 0.00 0.00 0.00 50 1021.2
20220627110904 28 154 8.0 12.9 0.00 0.00 0.00 52 1021.2
20220627110004 28 155 8.0 16.1 0.00 0.00 0.00 49 1021.2
20220627105404 29 164 4.8 16.1 0.00 0.00 0.00 49 1021.2
20220627104507 29 183 4.8 14.5 0.00 0.00 0.00 50 1021.2
20220627103604 28 165 4.8 17.7 0.00 0.00 0.00 51 1021.3
20220627102704 28 174 4.8 12.9 0.00 0.00 0.00 53 1021.4
20220627101804 28 195 3.2 9.7 0.00 0.00 0.00 52 1021.3
20220627100904 28 174 4.8 14.5 0.00 0.00 0.00 52 1021.4
20220627100005 28 177 3.2 12.9 0.00 0.00 0.00 52 1021.4
20220627095404 28 249 4.8 9.7 0.00 0.00 0.00 56 1021.3
20220627094506 28 176 4.8 16.1 0.00 0.00 0.00 52 1021.3
20220627093605 28 165 4.8 12.9 0.00 0.00 0.00 52 1021.4
20220627092704 28 154 4.8 11.3 0.00 0.00 0.00 58 1021.3
20220627091804 27 189 4.8 11.3 0.00 0.00 0.00 55 1021.4
20220627090904 27 163 6.4 9.7 0.00 0.00 0.00 54 1021.4
20220627090006 27 156 6.4 12.9 0.00 0.00 0.00 57 1021.5
20220627085404 27 131 4.8 14.5 0.00 0.00 0.00 55 1021.5
20220627084504 27 157 3.2 12.9 0.00 0.00 0.00 55 1021.5
20220627083604 27 143 4.8 12.9 0.00 0.00 0.00 56 1021.6
20220627082704 27 143 1.6 14.5 0.00 0.00 0.00 55 1021.6
20220627081804 26 170 3.2 8.0 0.00 0.00 0.00 58 1021.6
20220627080904 26 163 4.8 9.7 0.00 0.00 0.00 57 1021.6
20220627080004 26 154 4.8 8.0 0.00 0.00 0.00 59 1021.7
20220627075405 26 125 4.8 9.7 0.00 0.00 0.00 58 1021.7
20220627074504 26 103 4.8 11.3 0.00 0.00 0.00 58 1021.6
20220627073604 26 92 4.8 9.7 0.00 0.00 0.00 59 1021.5
20220627072704 26 90 3.2 11.3 0.00 0.00 0.00 61 1021.5
20220627071806 25 119 3.2 6.4 0.00 0.00 0.00 62 1021.5
20220627070904 25 154 3.2 9.7 0.00 0.00 0.00 60 1021.4
20220627070004 25 155 3.2 9.7 0.00 0.00 0.00 61 1021.4
20220627065404 25 150 4.8 9.7 0.00 0.00 0.00 61 1021.4
20220627064506 25 137 3.2 11.3 0.00 0.00 0.00 61 1021.4
20220627063604 25 151 3.2 8.0 0.00 0.00 0.00 62 1021.4
20220627062704 24 130 4.8 9.7 0.00 0.00 0.00 64 1021.4
20220627061806 23 149 4.8 11.3 0.00 0.00 0.00 64 1021.3
20220627060904 23 129 4.8 11.3 0.00 0.00 0.00 65 1021.3
20220627060005 23 133 4.8 8.0 0.00 0.00 0.00 65 1021.3
20220627055404 22 145 3.2 9.7 0.00 0.00 0.00 66 1021.3
20220627054504 22 149 3.2 8.0 0.00 0.00 0.00 67 1021.3
20220627053604 22 130 3.2 9.7 0.00 0.00 0.00 68 1021.3
20220627052704 21 120 4.8 9.7 0.00 0.00 0.00 69 1021.4
20220627051804 21 121 4.8 11.3 0.00 0.00 0.00 69 1021.4
20220627050904 21 121 3.2 6.4 0.00 0.00 0.00 70 1021.3
20220627050004 20 127 3.2 4.8 0.00 0.00 0.00 72 1021.3
20220627045404 20 116 3.2 4.8 0.00 0.00 0.00 72 1021.3
20220627044504 20 127 3.2 8.0 0.00 0.00 0.00 73 1021.3
20220627043604 20 140 3.2 9.7 0.00 0.00 0.00 73 1021.2
20220627042704 19 147 1.6 6.4 0.00 0.00 0.00 75 1021.2
20220627041805 18 173 1.6 4.8 0.00 0.00 0.00 75 1021.1
20220627040904 18 177 1.6 6.4 0.00 0.00 0.00 74 1021.2
20220627040006 18 173 1.6 6.4 0.00 0.00 0.00 75 1021.2
20220627035404 17 175 1.6 3.2 0.00 0.00 0.00 76 1021.2
20220627034505 17 173 1.6 3.2 0.00 0.00 0.00 78 1021.2
20220627033604 16 0 0.0 3.2 0.00 0.00 0.00 79 1021.2
20220627032704 16 0 0.0 3.2 0.00 0.00 0.00 80 1021.2
20220627031804 16 132 0.0 3.2 0.00 0.00 0.00 80 1021.2
20220627030904 16 127 0.0 3.2 0.00 0.00 0.00 81 1021.2
20220627030004 15 120 1.6 3.2 0.00 0.00 0.00 81 1021.2
20220627025404 15 120 1.6 3.2 0.00 0.00 0.00 82 1021.3
20220627024504 14 138 0.0 3.2 0.00 0.00 0.00 83 1021.3
20220627023604 14 0 0.0 4.8 0.00 0.00 0.00 85 1021.3
20220627022704 13 0 0.0 0.0 0.00 0.00 0.00 87 1021.3
20220627021804 13 0 0.0 0.0 0.00 0.00 0.00 87 1021.2
20220627020905 13 0 0.0 0.0 0.00 0.00 0.00 88 1021.2
20220627020004 13 0 0.0 0.0 0.00 0.00 0.00 88 1021.2
20220627015404 13 0 0.0 3.2 0.00 0.00 0.00 89 1021.1
20220627014504 13 0 0.0 3.2 0.00 0.00 0.00 88 1021.2
20220627013604 13 0 0.0 0.0 0.00 0.00 0.00 89 1021.1
20220627012705 13 0 0.0 0.0 0.00 0.00 0.00 89 1021.0
20220627011804 13 0 0.0 0.0 0.00 0.00 0.00 89 1021.0
20220627010904 13 0 1.6 0.0 0.00 0.00 0.00 88 1021.0
20220627010004 13 318 1.6 3.2 0.00 0.00 0.00 88 1020.9
20220627005404 13 320 0.0 4.8 0.00 0.00 0.00 87 1020.9
20220627004506 13 0 0.0 1.6 0.00 0.00 0.00 87 1020.9
20220627003604 13 327 1.6 3.2 0.00 0.00 0.00 86 1020.9
20220627002705 13 327 1.6 3.2 0.00 0.00 0.00 87 1020.9
20220627001804 13 0 0.0 3.2 0.00 0.00 0.00 86 1020.8
20220627000906 13 0 0.0 0.0 0.00 0.00 0.00 86 1020.7
20220627000004 13 0 0.0 0.0 0.00 0.00 0.00 85 1020.7
20220626235406 13 0 0.0 0.0 0.00 0.00 0.00 85 1020.7
20220626234504 13 0 0.0 0.0 0.00 0.00 0.00 82 1020.7
20220626233604 14 0 0.0 0.0 0.00 0.00 0.00 83 1020.6
20220626232704 14 0 0.0 0.0 0.00 0.00 0.00 82 1020.6
20220626231804 14 0 0.0 0.0 0.00 0.00 0.00 82 1020.5
20220626230904 14 327 1.6 1.6 0.00 0.00 0.00 82 1020.4
20220626230004 14 327 0.0 1.6 0.00 0.00 0.00 82 1020.4
20220626225404 15 327 0.0 1.6 0.00 0.00 0.00 83 1020.4
20220626224505 14 327 1.6 3.2 0.00 0.00 0.00 83 1020.4
20220626223604 15 327 0.0 3.2 0.00 0.00 0.00 81 1020.4
20220626222704 15 327 1.6 3.2 0.00 0.00 0.00 82 1020.3
20220626221804 15 327 0.0 3.2 0.00 0.00 0.00 81 1020.3
20220626220905 15 0 0.0 0.0 0.00 0.00 0.00 82 1020.3
20220626220004 15 0 0.0 0.0 0.00 0.00 0.00 83 1020.4
20220626215404 15 0 0.0 0.0 0.00 0.00 0.00 83 1020.4
20220626214505 15 0 0.0 1.6 0.00 0.00 0.00 81 1020.3
20220626213604 16 0 0.0 0.0 0.00 0.00 0.00 81 1020.2
20220626212704 16 0 0.0 0.0 0.00 0.00 0.00 79 1020.1
20220626211804 16 0 0.0 0.0 0.00 0.00 0.00 77 1020.1
20220626210904 16 0 0.0 0.0 0.00 0.00 0.00 77 1020.1
20220626210008 17 0 0.0 0.0 0.00 0.00 0.00 77 1020.1
20220626205404 17 327 1.6 1.6 0.00 0.00 0.00 76 1020.1
20220626204504 17 325 3.2 4.8 0.00 0.00 0.00 74 1020.0
20220626203604 18 309 4.8 4.8 0.00 0.00 0.00 70 1020.0
20220626202704 18 317 4.8 8.0 0.00 0.00 0.00 70 1020.0
20220626201804 19 313 4.8 8.0 0.00 0.00 0.00 68 1019.9